Flag for Germany Weather past 2 weeks in Leipzig, Saxony, Germany

Now
63 °F

Clear.


Feels Like: 63 °F
Forecast: 60 / 76 °F
Wind: 8 mph from Southeast

Location: Leipzig-Schkeuditz

Current Time: Sep 18, 2014 at 9:51:07 PM

Latest Report: Sep 18, 2014 at 9:20 PM


Visibility: 10 mi

Pressure: 29.95 "Hg

Humidity: 88%

Dew point: 59 °F

Location of LeipzigLocation

Historic Weather in Leipzig — Graph

°F

Leipzig temperature yesterday

Maximum temperature yesterday: 75 °F (at 3:50 PM)
Minimum temperature yesterday: 55 °F (at 6:20 AM)
Average temperature yesterday: 65 °F

Past Weeks' High & Low Weather Summary

 TemperatureHumidityPressure
High81 °F (Sep 6, 3:20 PM)100% (Sep 4, 7:20 AM)30.21 "Hg (Sep 4, 7:20 AM)
Low50 °F (Sep 9, 6:20 AM)44% (Sep 17, 4:50 PM)29.86 "Hg (Sep 6, 3:50 PM)
Average63 °F87%30.03 "Hg
* Reported Sep 3 8:20 PM — Sep 18 8:50 PM, Leipzig, Weather by CustomWeather, © 2014

Note: Actual official high and low records may vary slightly from our data, if they occured in-between our weather recording intervals... More about our weather records

Advertising

Leipzig weather history for previous 24 hours

 ConditionsComfort  
Time TempWeatherWind HumidityBarometerVisibility
8:50 PM
Sep 18
64 °FClear.8 mph78%29.95 "Hg10 mi
8:20 PM64 °FClear.6 mph78%29.95 "Hg10 mi
7:50 PM66 °FSunny.6 mph78%29.95 "Hg10 mi
7:20 PM66 °FSunny.5 mph78%29.95 "Hg10 mi
6:50 PM68 °FSunny.6 mph73%29.95 "Hg10 mi
6:20 PM72 °FSunny.7 mph61%29.92 "Hg10 mi
5:50 PM72 °FSunny.8 mph61%29.92 "Hg10 mi
5:20 PM73 °FScattered clouds.7 mph57%29.92 "HgN/A
4:50 PM73 °FScattered clouds.7 mph57%29.92 "HgN/A
4:20 PM73 °FScattered clouds.8 mph57%29.92 "HgN/A
3:50 PM73 °FScattered clouds.8 mph61%29.92 "HgN/A
3:20 PM73 °FScattered clouds.8 mph57%29.92 "HgN/A
2:50 PM73 °FScattered clouds.8 mph61%29.92 "HgN/A
2:20 PM73 °FPassing clouds.7 mph61%29.92 "HgN/A
1:50 PM73 °FPassing clouds.5 mph57%29.95 "HgN/A
1:20 PM72 °FSunny.6 mph61%29.95 "Hg10 mi
12:50 PM72 °FSunny.6 mph61%29.95 "Hg10 mi
12:20 PM70 °FSunny.5 mph64%29.95 "Hg10 mi
11:50 AM70 °FSunny.5 mph64%29.95 "Hg10 mi
11:20 AM68 °FSunny.3 mph69%29.95 "Hg10 mi
10:50 AM66 °FSunny.5 mph68%29.95 "Hg10 mi
10:20 AM66 °FSunny.6 mph73%29.95 "Hg10 mi
9:50 AM64 °FSunny.7 mph78%29.95 "Hg10 mi
9:20 AM63 °FSunny.8 mph77%29.95 "Hg10 mi
8:50 AM61 °FSunny.8 mph83%29.95 "Hg10 mi
8:20 AM59 °FSunny.7 mph88%29.95 "Hg10 mi
7:50 AM55 °FSunny.7 mph94%29.95 "Hg10 mi
7:20 AM54 °FClear.6 mph94%29.95 "Hg10 mi
6:50 AM54 °FClear.7 mph94%29.95 "Hg10 mi
6:20 AM54 °FClear.6 mph94%29.95 "Hg10 mi
5:50 AM54 °FClear.7 mph94%29.95 "Hg10 mi
5:20 AM54 °FClear.10 mph94%29.95 "Hg10 mi
4:50 AM55 °FClear.10 mph94%29.95 "Hg10 mi
4:20 AM55 °FClear.10 mph88%29.95 "Hg10 mi
3:50 AM55 °FClear.13 mph94%29.95 "Hg10 mi
3:20 AM55 °FClear.12 mph94%29.95 "Hg10 mi
2:50 AM57 °FClear.13 mph88%29.95 "Hg10 mi
2:20 AM57 °FClear.13 mph88%29.95 "Hg10 mi
1:50 AM57 °FClear.12 mph88%29.95 "Hg10 mi
1:20 AM57 °FClear.10 mph88%29.95 "Hg10 mi
12:50 AM57 °FClear.12 mph88%29.95 "Hg10 mi
12:20 AM57 °FClear.10 mph88%29.95 "Hg10 mi
11:50 PM
Sep 17
59 °FClear.10 mph82%29.95 "Hg10 mi
11:20 PM59 °FClear.10 mph82%29.95 "Hg10 mi
10:50 PM59 °FClear.10 mph82%29.95 "Hg10 mi
10:20 PM61 °FClear.10 mph77%29.95 "Hg10 mi
9:50 PM61 °FClear.10 mph83%29.98 "Hg10 mi
9:20 PM61 °FClear.10 mph83%29.98 "Hg10 mi
Weather by CustomWeather, © 2014

See weather overviewHow to use our weather pages